Location: Darkveti
(42.3335°N, 43.3590°E)
Time: 06:26:54
(UTC+00:00)

Daily predictions for brighter satellites

Satellite Brightness Start Highest point End
(mag) Time Altitude Azimuth Time Altitude Azimuth Time Altitude Azimuth
CZ-2C R/B 3.0 16:28:18 10° NNE 16:33:14 43° E 16:38:14 10° S
Cosmos 2360 4.4 16:31:48 10° NNW 16:37:31 64° ENE 16:43:11 10° SE
SL-16 R/B 4.0 16:34:23 10° N 16:37:54 16° NE 16:41:25 10° E
Cosmos 1707 Rocket 4.0 16:36:16 10° N 16:40:24 42° ENE 16:44:31 10° SSE
Cosmos 2082 Rocket 2.2 16:39:27 10° SSW 16:45:07 74° ESE 16:50:47 10° NNE
MetOp-A 4.3 16:42:16 10° SSE 16:47:29 57° ENE 16:52:44 10° N
SL-4 R/B 3.8 16:45:44 10° W 16:49:24 30° NNW 16:52:49 10° NE
Cosmos 2369 3.8 16:45:06 10° NNW 16:50:53 87° WSW 16:56:35 10° SSE
Sich 1 3.0 16:47:54 10° S 16:52:20 83° E 16:56:48 10° N
ATLAS 3B R/B 4.0 16:51:26 10° SE 16:54:47 14° ESE 16:58:08 10° ENE
Cosmos 2322 Rocket 3.9 16:51:35 10° N 16:55:27 18° NE 16:59:17 10° E
Cosmos 2278 3.8 16:51:28 10° NNW 16:57:12 71° ENE 17:02:52 10° SSE
H-2A R/B 3.2 16:52:26 10° S 16:57:17 44° W 17:02:02 10° NNW
ATLAS 5 CENTAUR R/B 4.2 16:53:43 10° WNW 16:58:53 30° WSW 17:04:36 10° S
MONITOR-E 3.5 17:00:19 13° SSE 17:02:18 54° ENE 17:04:37 10° N
Cosmos 676 Rocket 4.0 16:58:37 10° S 17:03:54 72° ESE 17:09:15 10° NNE
Cosmos 2360 Rocket 4.3 17:02:00 10° NNE 17:04:20 12° NE 17:06:39 10° ENE
MOS 1 4.4 16:58:41 10° SSE 17:04:20 85° WSW 17:10:02 10° NNW
Cosmos 1934 Rocket 4.1 16:59:51 10° S 17:06:05 60° E 17:12:20 10° NNE
Cosmos 1862 Rocket 4.1 17:03:58 10° N 17:08:11 41° ENE 17:11:38 14° SE
USA 186 3.0 17:06:13 10° SSW 17:08:12 26° W 17:10:10 10° NW
Cosmos 389 Rocket 4.3 17:06:06 10° NNW 17:09:13 32° W 17:12:21 10° SSW
Meteor 1-4 Rocket 2.4 17:06:53 10° N 17:10:21 66° E 17:13:26 12° SSE
Cosmos 1238 Rocket 3.4 17:12:52 21° ESE 17:13:30 22° E 17:15:54 10° NE
Cosmos 1980 Rocket 2.2 17:08:33 10° NNW 17:14:15 87° ENE 17:19:31 12° SSE
Genesis I 3.7 17:12:47 10° NW 17:16:35 54° WSW 17:19:53 13° SSE
USA 238 DEB 3.7 17:11:49 10° SW 17:18:26 89° NW 17:25:20 10° NE
USA 238 3.7 17:11:55 10° SSW 17:18:31 90° W 17:25:26 10° NE
Lacrosse 5 2.4 17:15:05 10° NW 17:20:00 48° NE 17:23:28 19° ESE
Intercosmos 25 3.7 17:17:13 10° NNW 17:20:40 52° W 17:23:45 10° S
Cosmos 1833 Rocket 4.5 17:15:49 10° WSW 17:20:57 35° WNW 17:26:07 10° N
CZ-2C R/B 3.6 17:16:45 10° NNE 17:21:19 71° ESE 17:25:45 10° S
CENTAUR R/B 2.4 17:16:39 10° SSW 17:22:17 61° ESE 17:28:57 10° NE
Resurs 01 Rocket 1.8 17:19:47 17° SE 17:23:02 54° ENE 17:27:21 10° N
USA 276 3.8 17:20:35 10° NW 17:23:20 26° NNE 17:25:28 14° ENE
X-37B 1.0 17:20:56 10° WNW 17:24:03 58° N 17:25:51 22° E
SPOT 3 Rocket 3.5 17:19:41 10° SSE 17:24:50 82° ENE 17:30:02 10° NNW
Cosmos 1697 Rocket 3.9 17:21:16 10° NW 17:26:28 40° WSW 17:31:38 10° S
Cosmos 1602 4.4 17:27:29 23° SE 17:29:16 36° E 17:32:54 10° NNE
Meteor 1-20 Rocket 4.3 17:24:49 10° S 17:30:34 65° E 17:36:22 10° NNE
GP-B 3.4 17:26:50 10° NNE 17:31:08 47° E 17:33:42 22° SSE
Cosmos 1933 Rocket 3.9 17:28:49 18° SSE 17:31:46 44° E 17:36:00 10° NNE
Cosmos 1954 Rocket 4.5 17:26:53 10° SSW 17:32:10 66° WNW 17:37:29 10° NNE
Cosmos 1666 Rocket 4.3 17:28:02 10° SSW 17:32:15 54° W 17:36:32 10° N
Spot 2 Rocket 4.3 17:30:54 22° ESE 17:33:25 35° ENE 17:38:01 10° N
Cosmos 1741 Rocket 4.1 17:34:48 10° S 17:39:54 54° ESE 17:45:03 10° NNE
Cosmos 405 Rocket 2.5 17:39:54 22° S 17:42:07 64° E 17:45:51 10° NNE
Okean 1-7 3.8 17:43:26 10° N 17:47:20 33° ENE 17:48:08 31° E
Cosmos 2333 Rocket 4.4 17:46:08 10° NNE 17:48:16 12° NE 17:50:24 10° ENE
Cosmos 1515 4.4 17:45:53 10° N 17:49:25 35° ENE 17:49:46 34° E
Cosmos 1763 Rocket 3.6 17:45:32 10° NNW 17:50:49 60° ENE 17:53:10 32° SE
Resurs 1-3 4.5 17:48:14 12° S 17:52:09 47° W 17:56:24 10° NNW
Cosmos 1437 Rocket 3.0 17:52:31 10° N 17:56:10 44° ENE 17:56:31 43° E
Cosmos 1703 Rocket 3.8 17:52:54 10° N 17:57:07 48° ENE 17:58:00 41° ESE
Cosmos 2084 Rocket 3.7 17:54:23 10° SW 17:58:32 68° NW 18:02:48 10° NNE
OBJECT-B 2.9 17:56:28 11° SSW 17:59:05 25° W 18:01:52 10° NW
Landsat 7 3.9 17:57:34 37° SE 17:59:16 60° ENE 18:03:58 10° N
H-2A R/B 3.3 17:55:28 10° NNE 17:59:37 80° ESE 18:01:50 27° S
SPOT 5 3.8 17:59:11 25° ENE 17:59:39 25° ENE 18:03:16 10° NNE
MetOp-B 4.1 17:59:30 29° SSE 18:02:23 86° ENE 18:07:46 10° NNW
USA 245 4.5 17:59:45 28° SSE 18:03:18 73° ENE 18:09:20 10° N
Cosmos 1605 Rocket 4.1 18:00:11 10° SSW 18:06:17 74° W 18:12:23 10° N
Cosmos 921 Rocket 3.7 18:02:16 10° NNW 18:06:19 48° WSW 18:08:16 27° SSW
Cosmos 2100 Rocket 4.2 18:07:33 35° SE 18:09:33 47° E 18:15:23 10° NNE
Meteor 1-19 Rocket 4.0 18:04:53 10° N 18:10:21 79° E 18:12:35 37° SSE
USA 267 3.1 18:04:02 10° NE 18:10:33 66° SE 18:17:02 10° SW
Cosmos 2173 Rocket 4.2 18:12:01 37° SE 18:13:46 47° E 18:19:34 10° NNE
Cosmos 2219 Rocket 4.1 18:15:29 10° N 18:19:07 17° NE 18:20:59 15° ENE
Meteor 2-4 Rocket 3.8 18:13:48 10° N 18:19:18 57° ENE 18:20:30 46° ESE
NOSS 3-2 (C) 4.1 18:13:51 10° SW 18:19:26 54° NW 18:25:49 10° NNE
Okean 1 3.6 18:15:32 10° NNW 18:19:33 66° W 18:20:29 48° SSW
Lacrosse 4 Rocket 3.6 18:25:08 15° NE 18:25:08 15° NE 18:25:55 10° NE
SL-16 R/B 2.1 18:17:07 10° NNW 18:22:49 89° WSW 18:24:36 46° SSE
Cosmos 540 Rocket 3.6 18:18:49 10° NNW 18:23:56 59° ENE 18:24:50 51° ESE
Cosmos 1459 Rocket 4.0 18:24:48 42° SSE 18:26:45 60° E 18:33:01 10° NNE
SL-4 R/B 4.2 18:26:58 10° NW 18:29:52 20° N 18:31:51 14° NE
Cosmos 2242 Rocket 4.2 18:26:04 10° NNW 18:30:21 51° W 18:31:38 38° SW
SL-27 R/B 3.6 18:31:00 35° W 18:31:37 39° WNW 18:34:46 10° N
Cosmos 2016 Rocket 4.3 18:33:08 44° ESE 18:33:57 47° E 18:40:01 10° NNE
Cosmos 1833 4.4 18:34:22 49° E 18:34:22 49° E 18:39:35 10° NE
ERS-1 Rocket 2.8 18:36:14 65° SE 18:36:50 74° ENE 18:41:51 10° N
Meteor 1-13 Rocket 4.4 18:32:41 10° N 18:38:04 50° ENE 18:38:29 49° E
Cosmos 2322 Rocket 2.2 18:34:28 10° NNW 18:40:12 80° WSW 18:41:25 56° S
Cosmos 967 Rocket 4.4 18:34:49 10° NNW 18:41:12 79° ENE 18:42:40 55° SE
SPOT 1/Viking Rocket 3.8 18:42:54 48° SSW 18:44:11 65° WSW 18:49:24 10° NNW
ATLAS 3B R/B 2.5 18:37:50 10° SSW 18:44:26 85° ESE 18:51:06 10° NE
USA 234 3.9 18:41:40 29° E 18:44:42 48° NNE 18:50:55 10° NW
BREEZE-M TANK 4.1 18:37:34 10° SW 18:45:05 38° SSW 18:45:05 38° SSW
Terra 2.0 18:49:02 59° ENE 18:49:02 59° ENE 18:53:31 10° N
Cosmos 841 Rocket 3.4 18:44:03 10° NNW 18:49:19 80° WSW 18:49:50 71° SSW
Cosmos 2360 Rocket 2.1 18:43:49 10° NNW 18:49:28 67° ENE 18:50:02 62° E
Cosmos 1500 4.0 18:50:44 48° NNW 18:50:44 48° NNW 18:53:45 10° N
Cosmos 2221 Rocket 4.2 18:47:01 10° N 18:50:40 48° NE 18:50:40 48° NE
Cosmos 2237 4.0 18:47:40 10° NNW 18:53:25 79° ENE 18:53:58 71° ESE
Okean 3 3.9 18:52:05 10° N 18:55:36 57° N 18:55:36 57° N
Iridium 4 Rocket 3.6 18:58:58 53° N 18:58:58 53° N 19:02:10 10° N
Resurs 01 Rocket 4.2 18:57:26 10° SW 18:59:51 14° W 19:02:15 10° WNW
X-37B 3.6 18:57:38 10° W 18:58:07 13° W 18:58:07 13° W
Cosmos 1666 4.5 19:02:45 26° NNE 19:02:45 26° NNE 19:04:32 10° NNE
Cosmos 44 3.8 18:57:17 10° NW 19:02:08 52° WSW 19:02:11 52° WSW
Lacrosse 5 3.0 18:58:20 10° WNW 19:02:39 32° WSW 19:02:39 32° WSW
CARTOSAT-1 4.1 19:03:24 54° WNW 19:03:24 54° WNW 19:07:18 10° NNW
Cosmos 2061 Rocket 3.8 19:05:49 71° SSE 19:06:32 82° E 19:12:45 10° N
Cosmos 1802 Rocket 4.1 19:10:10 54° SSW 19:11:41 77° W 19:18:03 10° N
CENTAUR R/B 4.3 19:08:00 10° W 19:13:27 32° NW 19:19:45 10° NNE
COSMOS 2428 3.6 19:10:23 10° N 19:15:41 37° ENE 19:15:48 37° ENE
Cosmos 1814 Rocket 4.4 19:11:40 10° NNW 19:16:43 56° WSW 19:16:43 56° WSW
Cosmos 2237 Rocket 4.1 19:16:17 10° N 19:20:01 18° NE 19:20:58 17° ENE
Cosmos 1816 Rocket 4.3 19:18:00 10° N 19:24:16 84° E 19:24:23 84° ESE
Cosmos 44 Rocket 4.3 19:21:21 10° NNW 19:25:33 39° NE 19:25:33 39° NE
Cosmos 2333 Rocket 2.5 19:28:03 10° NNW 19:33:20 59° NE 19:33:20 59° NE
SPOT 5 4.3 19:38:25 27° WNW 19:38:25 27° WNW 19:41:29 10° NW
Cosmos 1066 Rocket 4.3 19:34:37 10° NNW 19:39:35 69° NNW 19:39:35 69° NNW
USA 267 4.2 19:47:14 10° NE 19:53:22 44° NNW 19:59:29 10° W
Tsikada Rocket 4.1 19:47:46 10° NNW 19:53:56 65° W 19:53:56 65° W
Cosmos 2227 Rocket 4.4 19:58:23 14° ENE 19:58:23 14° ENE 19:59:26 10° NE
Cosmos 968 Rocket 4.3 19:57:27 47° N 19:57:27 47° N 20:01:15 10° NNE
Lacrosse 4 Rocket 3.5 20:01:22 25° NW 20:01:22 25° NW 20:04:21 10° N
Cosmos 2219 Rocket 2.6 19:58:07 10° NNW 20:02:41 59° NNW 20:02:41 59° NNW
BREEZE-M DEB (TANK) 4.3 20:05:55 10° WNW 20:10:39 73° NNE 20:31:44 10° ESE
Terra 4.3 20:27:56 14° WNW 20:27:56 14° WNW 20:29:36 10° WNW
USA 234 3.7 20:29:00 49° W 20:29:00 49° W 20:34:03 10° NW
Cosmos 2360 Rocket 4.3 20:29:14 10° WNW 20:31:48 17° W 20:31:48 17° W
SL-16 R/B 3.9 20:31:01 10° N 20:35:37 24° NE 20:35:50 24° NE
Cosmos 2297 Rocket 3.4 20:50:25 37° NE 20:50:25 37° NE 20:53:46 10° NNE
Timation 2 Rocket 4.4 20:54:54 55° NNW 20:54:54 55° NNW 20:59:49 10° NNE
COSMOS 2428 4.3 20:54:46 10° NW 20:57:48 26° WNW 20:57:48 26° WNW
Cosmos 1464 Rocket 4.5 21:01:30 55° NNW 21:01:30 55° NNW 21:06:35 10° N
Cosmos 2219 4.1 21:04:37 44° NNE 21:04:37 44° NNE 21:08:25 10° NNE
Cosmos 2237 Rocket 3.2 20:59:07 10° NNW 21:02:46 42° NNW 21:02:46 42° NNW
SJ 16-02 4.0 21:10:39 15° NE 21:10:39 15° NE 21:11:30 10° NE
Nadezhda 4 Rocket 4.4 21:05:25 10° N 21:10:23 58° NNW 21:10:23 58° NNW
Cosmos 2333 Rocket 4.4 21:13:31 10° NW 21:15:19 16° WNW 21:15:19 16° WNW
CZ-2D R/B 4.5 21:21:44 10° NE 21:23:46 14° ENE 21:23:46 14° ENE
Cosmos 1092 Rocket 4.4 21:27:10 10° N 21:32:06 59° N 21:32:06 59° N
Cosmos 2227 Rocket 3.1 21:40:11 45° NNW 21:40:11 45° NNW 21:44:27 10° NNE
Resurs 1-4 Rocket 3.8 21:51:08 10° NE 21:54:28 25° ENE 21:54:28 25° ENE
Meteor 2-5 Rocket 4.4 21:50:11 10° N 21:54:25 49° NNE 21:54:25 49° NNE
USA 229 DEB 3.7 22:05:51 69° ENE 22:05:51 69° ENE 22:11:51 10° NE
USA 229 3.7 22:05:59 68° ENE 22:05:59 68° ENE 22:11:56 10° NE
Cosmos 2082 4.4 22:06:55 48° NNW 22:06:55 48° NNW 22:11:17 10° NNE
SL-16 R/B 3.2 22:10:36 44° E 22:11:31 47° ENE 22:17:27 10° N
Cosmos 2263 Rocket 3.2 22:17:00 38° ENE 22:17:00 38° ENE 22:21:05 10° NE
NOSS 3-1 (A) 3.8 22:17:45 53° ENE 22:17:45 53° ENE 22:22:37 10° NE
Cosmos 1655 Rocket 4.2 22:11:19 10° N 22:17:21 64° ENE 22:17:21 64° ENE
SL-16 R/B 3.5 22:14:32 10° NNW 22:17:41 32° NW 22:17:41 32° NW
Cosmos 2279 Rocket 4.1 22:24:45 67° NNW 22:24:45 67° NNW 22:30:16 10° N
ADEOS II 4.0 22:21:36 10° NE 22:25:24 20° E 22:25:41 20° E
Cosmos 1898 Rocket 4.2 22:27:31 49° N 22:27:31 49° N 22:31:23 10° NNE
Cosmos 2297 Rocket 4.0 22:32:12 20° WNW 22:32:45 20° NW 22:36:52 10° N
Cosmos 724 4.5 22:33:13 10° NNW 22:38:30 70° NNW 22:38:30 70° NNW
GEOS 3 Rocket 4.2 22:37:02 10° NE 22:41:34 51° E 22:41:34 51° E
Meteor 2-19 Rocket 4.5 22:38:23 10° NNW 22:44:00 70° NW 22:44:00 70° NW
SJ 16-02 3.4 22:47:38 21° NNW 22:47:38 21° NNW 22:49:49 10° N
IRAS Rocket 4.3 22:59:19 72° NW 22:59:19 72° NW 23:04:25 10° NNW
AQUA 4.2 22:55:48 10° NNE 22:59:51 59° NE 22:59:51 59° NE
Cosmos 1603 3.6 22:55:08 10° NNW 23:00:43 84° N 23:00:43 84° N
ATLAS CENTAUR R/B 2.8 23:04:06 33° ENE 23:04:06 33° ENE 23:06:28 10° NE
CZ-2D R/B 2.2 22:59:50 10° N 23:05:05 73° NW 23:05:05 73° NW
Cosmos 2285 Rocket 4.2 23:09:27 51° SE 23:10:32 59° ESE 23:16:42 10° NNE
IRS-1D 3.8 23:06:26 10° NNE 23:11:31 60° ESE 23:11:47 59° ESE
Cosmos 1455 Rocket 4.4 23:15:14 31° NW 23:15:14 31° NW 23:18:04 10° N
Cosmos 1626 Rocket 4.2 23:11:49 10° N 23:15:03 50° N 23:15:03 50° N
Cosmos 2266 Rocket 4.0 23:11:13 10° NNW 23:17:23 59° W 23:17:25 59° W
NOSS 3-1 (C) 4.5 23:16:43 29° WNW 23:18:07 32° NW 23:23:51 10° NNE
Cosmos 1943 3.0 23:12:48 10° NNW 23:18:27 81° WSW 23:18:28 81° WSW
Meteor 2-21 4.4 23:13:38 10° N 23:19:44 82° E 23:21:09 55° SSE
Cosmos 2084 3.9 23:23:52 62° NNE 23:23:52 62° NNE 23:27:38 10° NE
NPP 3.8 23:21:05 10° N 23:26:22 58° WNW 23:26:29 58° WNW
Cosmos 1932 4.4 23:20:45 10° NW 23:27:15 86° WSW 23:30:41 30° SSE
Cosmos 1703 4.1 23:27:35 10° N 23:31:25 45° ENE 23:31:37 45° E
Cosmos 2098 Rocket 4.4 23:26:19 10° NNW 23:31:57 45° W 23:32:03 45° W
SL-08 R/B 4.2 23:32:10 24° SE 23:34:58 50° ENE 23:39:43 10° N
Resurs 1-4 Rocket 2.8 23:30:37 10° N 23:35:28 39° WNW 23:35:31 39° WNW
Cosmos 1758 Rocket 4.1 23:35:13 10° N 23:39:29 55° E 23:40:32 43° SE
IDEFIX/ARIANE 42P 3.9 23:36:07 10° NNE 23:40:50 33° E 23:43:45 19° SSE
Cosmos 1048 Rocket 3.9 23:35:53 10° NNW 23:41:04 83° ENE 23:42:59 40° SSE
COBE Rocket 4.0 23:41:55 52° WNW 23:41:55 52° WNW 23:45:52 10° NNW
Cosmos 1953 3.1 23:43:41 42° NW 23:43:41 42° NW 23:46:47 10° N
Cosmos 372 Rocket 4.5 23:44:04 43° WNW 23:44:24 44° WNW 23:49:26 10° N
Cosmos 2298 Rocket 4.1 23:44:45 56° W 23:45:20 60° WNW 23:50:38 10° NNE
Cosmos 1328 4.2 23:43:59 10° N 23:47:57 61° E 23:48:33 53° ESE
H-2A R/B 4.5 23:45:56 10° ESE 23:48:58 21° ENE 23:52:02 10° NNE
Atlas Centaur 2 3.5 23:51:56 27° SSE 23:51:56 27° SSE 23:57:29 10° ESE
CZ-4B R/B 3.7 23:50:52 10° N 23:55:25 47° WNW 23:55:44 46° W
